• In Hungary
  • List of Countries
  • For 7 days
  • Water Temperature
  • Satellite Maps
  • Weather Map
  • News
  • Weather Widgets
  • user-avatar
    Login

    Hourly Weather San Rafael

    Today, 12 December, Tuesday

    Time Temperature Precipitation Wind Pressure Humidity
    00:00 +14°C° 0.7 mm 2 mps 614 mmHg 88%
    01:00 +14°C° 0.6 mm 2 mps 613 mmHg 89%
    02:00 +14°C° 0.6 mm 1 mps 613 mmHg 89%
    03:00 +13°C° 0.6 mm 1 mps 613 mmHg 89%
    04:00 +13°C° 0.5 mm 1 mps 613 mmHg 89%
    05:00 +13°C° 0.5 mm 2 mps 613 mmHg 88%
    06:00 +13°C° 0.5 mm 2 mps 613 mmHg 88%
    07:00 +14°C° 0.4 mm 2 mps 614 mmHg 84%
    08:00 +15°C° 0.4 mm 1 mps 615 mmHg 81%
    09:00 +16°C° 0.4 mm 1 mps 615 mmHg 77%
    10:00 +18°C° 1 mm 1 mps 615 mmHg 77%
    11:00 +18°C° 1 mm 1 mps 615 mmHg 76%
    12:00 +17°C° 1 mm 2 mps 615 mmHg 75%
    13:00 +16°C° 1.5 mm 2 mps 614 mmHg 78%
    14:00 +16°C° 1.5 mm 2 mps 613 mmHg 81%
    15:00 +15°C° 1.5 mm 2 mps 613 mmHg 84%
    16:00 +15°C° 1.1 mm 2 mps 613 mmHg 86%
    17:00 +14°C° 1.1 mm 2 mps 613 mmHg 87%
    18:00 +13°C° 1.1 mm 2 mps 613 mmHg 89%
    19:00 +13°C° 1.2 mm 2 mps 613 mmHg 89%
    20:00 +13°C° 1.2 mm 2 mps 613 mmHg 89%
    21:00 +14°C° 1.2 mm 2 mps 614 mmHg 89%
    22:00 +14°C° 1.8 mm 2 mps 614 mmHg 89%
    23:00 +14°C° 1.8 mm 2 mps 614 mmHg 90%

    Tomorrow, 13 December, Wednesday

    Time Temperature Precipitation Wind Pressure Humidity
    00:00 +14°C° 1.8 mm 2 mps 614 mmHg 90%
    01:00 +14°C° 1 mm 2 mps 613 mmHg 90%
    02:00 +13°C° 1 mm 2 mps 613 mmHg 90%
    03:00 +13°C° 1 mm 2 mps 613 mmHg 91%
    04:00 +13°C° 0.3 mm 2 mps 613 mmHg 90%
    05:00 +13°C° 0.3 mm 2 mps 613 mmHg 90%
    06:00 +13°C° 0.3 mm 2 mps 613 mmHg 89%
    07:00 +14°C° 0.2 mm 2 mps 614 mmHg 86%
    08:00 +15°C° 0.2 mm 2 mps 615 mmHg 82%
    09:00 +16°C° 0.2 mm 2 mps 616 mmHg 78%
    10:00 +16°C° 0.1 mm 2 mps 616 mmHg 78%
    11:00 +17°C° 0.1 mm 2 mps 615 mmHg 78%
    12:00 +17°C° 0.1 mm 2 mps 615 mmHg 77%
    13:00 +17°C° 0.1 mm 2 mps 614 mmHg 79%
    14:00 +16°C° 0.1 mm 2 mps 614 mmHg 80%
    15:00 +16°C° 0.1 mm 2 mps 613 mmHg 81%
    16:00 +15°C° 0.1 mm 2 mps 613 mmHg 83%
    17:00 +14°C° 0.1 mm 2 mps 613 mmHg 85%
    18:00 +14°C° 0.1 mm 2 mps 613 mmHg 87%
    19:00 +13°C° 0 mm 2 mps 613 mmHg 86%
    20:00 +13°C° 0 mm 2 mps 613 mmHg 85%
    21:00 +13°C° 0 mm 2 mps 614 mmHg 84%
    22:00 +13°C° 0 mm 2 mps 613 mmHg 84%
    23:00 +13°C° 0 mm 2 mps 613 mmHg 84%

    Day after tomorrow, 14 December, Thursday

    Time Temperature Precipitation Wind Pressure Humidity
    00:00 +13°C° 0 mm 2 mps 613 mmHg 84%
    01:00 +13°C° 0.1 mm 2 mps 613 mmHg 85%
    02:00 +13°C° 0.1 mm 2 mps 612 mmHg 85%
    03:00 +13°C° 0.1 mm 2 mps 612 mmHg 86%
    04:00 +13°C° 0.1 mm 1 mps 612 mmHg 86%
    05:00 +13°C° 0.1 mm 1 mps 612 mmHg 87%
    06:00 +13°C° 0.1 mm 1 mps 612 mmHg 87%
    07:00 +14°C° 0.3 mm 1 mps 613 mmHg 85%
    08:00 +15°C° 0.3 mm 1 mps 614 mmHg 83%
    09:00 +16°C° 0.3 mm 1 mps 614 mmHg 80%
    10:00 +16°C° 0.4 mm 1 mps 614 mmHg 81%
    11:00 +16°C° 0.4 mm 1 mps 614 mmHg 82%
    12:00 +16°C° 0.4 mm 1 mps 613 mmHg 84%
    13:00 +16°C° 0.1 mm 1 mps 613 mmHg 83%
    14:00 +16°C° 0.1 mm 1 mps 612 mmHg 83%
    15:00 +18°C° 0.1 mm 1 mps 612 mmHg 82%
    16:00 +16°C° 0 mm 1 mps 612 mmHg 85%
    17:00 +15°C° 0 mm 1 mps 612 mmHg 88%
    18:00 +14°C° 0 mm 1 mps 612 mmHg 91%
    19:00 +14°C° 0 mm 1 mps 612 mmHg 90%
    20:00 +14°C° 0 mm 1 mps 613 mmHg 89%
    21:00 +14°C° 0 mm 1 mps 613 mmHg 88%
    22:00 +13°C° 0.1 mm 1 mps 613 mmHg 87%
    23:00 +13°C° 0.1 mm 1 mps 612 mmHg 86%

    15 December, Friday

    Time Temperature Precipitation Wind Pressure Humidity
    00:00 +12°C° 0.1 mm 1 mps 612 mmHg 85%
    01:00 +12°C° 0.1 mm 1 mps 611 mmHg 83%
    02:00 +12°C° 0.1 mm 1 mps 611 mmHg 80%
    03:00 +11°C° 0.1 mm 1 mps 611 mmHg 77%
    04:00 +11°C° 0 mm 1 mps 611 mmHg 76%
    05:00 +11°C° 0 mm 1 mps 611 mmHg 75%
    06:00 +12°C° 0 mm 1 mps 612 mmHg 73%
    07:00 +14°C° 0 mm 1 mps 613 mmHg 69%
    08:00 +16°C° 0 mm 1 mps 614 mmHg 65%
    09:00 +20°C° 0 mm 1 mps 616 mmHg 62%
    10:00 +21°C° 0 mm 1 mps 615 mmHg 60%
    11:00 +21°C° 0 mm 1 mps 615 mmHg 59%
    12:00 +21°C° 0 mm 2 mps 615 mmHg 57%
    13:00 +21°C° 0 mm 2 mps 614 mmHg 59%
    14:00 +20°C° 0 mm 2 mps 614 mmHg 60%
    15:00 +20°C° 0 mm 2 mps 613 mmHg 62%
    16:00 +19°C° 0 mm 1 mps 613 mmHg 71%
    17:00 +16°C° 0 mm 1 mps 612 mmHg 81%
    18:00 +14°C° 0 mm 1 mps 612 mmHg 91%
    19:00 +14°C° 0 mm 1 mps 612 mmHg 89%
    20:00 +14°C° 0 mm 1 mps 613 mmHg 86%
    21:00 +13°C° 0 mm 2 mps 613 mmHg 84%
    22:00 +13°C° 0 mm 2 mps 613 mmHg 83%
    23:00 +13°C° 0 mm 2 mps 613 mmHg 82%

    16 December, Saturday

    Time Temperature Precipitation Wind Pressure Humidity
    00:00 +13°C° 0 mm 2 mps 612 mmHg 81%
    01:00 +13°C° 0 mm 2 mps 612 mmHg 81%
    02:00 +13°C° 0 mm 2 mps 612 mmHg 81%
    03:00 +13°C° 0 mm 2 mps 611 mmHg 81%
    04:00 +13°C° 0 mm 2 mps 612 mmHg 81%
    05:00 +14°C° 0 mm 2 mps 612 mmHg 82%
    06:00 +14°C° 0 mm 2 mps 613 mmHg 83%
    07:00 +16°C° 0 mm 2 mps 613 mmHg 78%
    08:00 +17°C° 0 mm 2 mps 614 mmHg 74%
    09:00 +19°C° 0 mm 2 mps 615 mmHg 69%
    10:00 +20°C° 0.1 mm 2 mps 615 mmHg 68%
    11:00 +20°C° 0.1 mm 2 mps 615 mmHg 67%
    12:00 +21°C° 0.1 mm 2 mps 615 mmHg 66%
    13:00 +20°C° 0.2 mm 2 mps 614 mmHg 67%
    14:00 +20°C° 0.2 mm 2 mps 613 mmHg 69%
    15:00 +19°C° 0.2 mm 2 mps 613 mmHg 71%
    16:00 +18°C° 0 mm 2 mps 612 mmHg 77%
    17:00 +16°C° 0 mm 2 mps 612 mmHg 83%
    18:00 +14°C° 0 mm 1 mps 611 mmHg 89%
    19:00 +14°C° 0 mm 2 mps 612 mmHg 86%
    20:00 +14°C° 0 mm 2 mps 612 mmHg 82%
    21:00 +14°C° 0 mm 2 mps 612 mmHg 79%
    22:00 +13°C° 0 mm 2 mps 612 mmHg 78%
    23:00 +13°C° 0 mm 2 mps 611 mmHg 77%

    17 December, Sunday

    Time Temperature Precipitation Wind Pressure Humidity
    00:00 +13°C° 0 mm 2 mps 611 mmHg 77%
    01:00 +13°C° 0 mm 2 mps 611 mmHg 75%
    02:00 +13°C° 0 mm 2 mps 610 mmHg 74%
    03:00 +12°C° 0 mm 2 mps 610 mmHg 72%
    04:00 +12°C° 0 mm 2 mps 610 mmHg 70%
    05:00 +12°C° 0 mm 2 mps 610 mmHg 68%
    06:00 +12°C° 0 mm 2 mps 611 mmHg 65%
    07:00 +14°C° 0 mm 2 mps 612 mmHg 64%
    08:00 +17°C° 0 mm 2 mps 613 mmHg 62%
    09:00 +20°C° 0 mm 2 mps 615 mmHg 60%
    10:00 +20°C° 0 mm 2 mps 614 mmHg 62%
    11:00 +20°C° 0 mm 2 mps 614 mmHg 63%
    12:00 +20°C° 0 mm 2 mps 613 mmHg 65%
    13:00 +20°C° 0 mm 2 mps 613 mmHg 65%
    14:00 +20°C° 0 mm 2 mps 612 mmHg 66%
    15:00 +19°C° 0 mm 2 mps 612 mmHg 67%
    16:00 +18°C° 0 mm 2 mps 611 mmHg 73%
    17:00 +16°C° 0 mm 2 mps 611 mmHg 80%
    18:00 +14°C° 0 mm 2 mps 611 mmHg 87%
    19:00 +14°C° 0.1 mm 2 mps 611 mmHg 85%
    20:00 +14°C° 0.1 mm 2 mps 611 mmHg 83%
    21:00 +14°C° 0.1 mm 2 mps 612 mmHg 81%
    22:00 +14°C° 0.1 mm 2 mps 612 mmHg 82%
    23:00 +14°C° 0.1 mm 2 mps 611 mmHg 83%
    Show more